Location: Waning Moon II Observatory
(30.3730°N, 89.7620°W)
Time: 14:57:34
(UTC-05:00)

Daily predictions for brighter satellites

Satellite Brightness Start Highest point End
(mag) Time Altitude Azimuth Time Altitude Azimuth Time Altitude Azimuth
Spot 2 Rocket 3.7 19:42:59 10° SSE 19:47:57 56° ENE 19:52:56 10° N
Cosmos 1809 Rocket 4.5 19:42:54 10° S 19:49:01 71° E 19:55:08 10° N
Hubble Space Telescope 1.1 19:45:03 10° W 19:49:08 57° S 19:53:13 10° ESE
Cosmos 1025 Rocket 3.2 19:46:32 10° N 19:50:47 50° E 19:54:57 10° SSE
Cosmos 1455 Rocket 3.7 19:48:47 10° SSE 19:52:38 32° E 19:56:31 10° NNE
FREGAT/IRIS 2.8 19:50:06 10° S 19:53:13 84° W 19:56:22 10° NNW
Cosmos 1892 Rocket 4.3 19:49:38 10° NNE 19:53:40 33° E 19:57:42 10° SE
ATLAS 3B CENTAUR R/B 0.3 19:51:21 10° W 19:53:48 44° S 19:55:33 10° ESE
Cosmos 1570 Rocket 4.0 19:51:51 10° S 19:57:06 66° ESE 20:02:21 10° NNE
Resurs 1-3 3.8 19:53:42 10° SSE 19:57:55 50° ENE 20:02:10 10° N
Cosmos 2227 Rocket 3.5 19:55:44 10° NNE 20:00:04 22° ENE 20:04:23 10° ESE
CZ-4B DEB 3.7 19:57:18 10° SE 20:00:12 30° ENE 20:03:06 10° NNE
NOSS 7 (H) 4.3 20:00:06 10° SSW 20:03:37 62° ESE 20:06:52 10° NE
Cosmos 1536 3.7 20:02:18 10° SSW 20:06:12 54° W 20:10:08 10° N
Cosmos 1346 Rocket 3.8 20:02:57 10° NNE 20:06:22 27° ENE 20:09:46 10° SE
Meteor 1-5 Rocket 4.1 20:01:35 10° S 20:06:48 65° E 20:12:09 10° NNE
ALOS 2.8 20:04:01 10° SE 20:08:19 38° ENE 20:12:37 10° N
Cosmos 2297 Rocket 3.5 20:11:18 10° NNE 20:15:32 21° ENE 20:18:31 14° E
Cosmos 1934 Rocket 3.9 20:10:38 10° S 20:16:42 79° E 20:22:55 10° N
MDS-1 4.4 20:14:58 10° SW 20:16:47 37° SSE 20:18:31 18° ESE
Resurs 01 Rocket 2.0 20:13:00 10° S 20:17:23 68° WSW 20:21:48 10° NNW
CZ-3C R/B 3.9 18:35:47 10° WSW 20:20:29 61° SSW 20:28:20 16° ESE
USA 186 2.6 20:21:26 18° SE 20:23:18 32° ENE 20:26:08 10° NNE
Cosmos 968 Rocket 4.3 20:21:09 10° NNW 20:26:05 50° WSW 20:31:00 10° S
Cosmos 1544 Rocket 4.1 20:22:10 10° SSW 20:26:27 62° W 20:30:49 10° N
Delta 2 Rocket 4.3 20:21:16 10° WNW 20:26:55 60° NNE 20:30:45 18° E
ERS-1 Rocket 4.3 20:27:57 18° E 20:29:38 21° ENE 20:33:22 10° NNE
GOES 2 Rocket 4.2 20:33:33 10° W 20:37:13 30° SSW 20:39:24 19° SSE
OTV 4 2.1 20:37:38 10° NW 20:40:11 25° NNE 20:41:08 21° NE
H-II Stage 2 3.5 20:44:43 10° SW 20:45:33 18° SSW 20:45:33 18° SSW
Lacrosse 5 4.1 20:44:47 10° NNE 20:46:28 11° NE 20:48:07 10° NE
Cosmos 1697 Rocket 2.7 20:41:56 10° S 20:47:26 55° ESE 20:52:56 10° NNE
Cosmos 1975 2.7 20:47:54 10° S 20:51:59 86° E 20:56:06 10° N
Cosmos 468 Rocket 3.9 20:49:22 10° S 20:54:24 61° ESE 20:59:26 10° NNE
Cosmos 2173 Rocket 4.3 20:56:18 25° SE 20:59:31 44° E 21:05:28 10° NNE
H-2A R/B 3.4 20:57:11 16° S 21:00:06 56° W 21:03:57 10° NNW
Cosmos 1814 Rocket 4.0 20:58:25 10° S 21:03:41 63° ESE 21:08:57 10° NNE
Lacrosse 5 rocket 2.3 21:02:44 10° NNW 21:05:31 29° NNE 21:05:31 29° NNE
CZ-4 DEB 4.1 21:11:14 31° N 21:11:14 31° N 21:13:03 10° N
Cosmos 1980 Rocket 2.3 21:04:35 10° S 21:10:01 51° ESE 21:15:30 10° NNE
Cosmos 2100 Rocket 3.9 21:07:11 21° SSE 21:11:31 63° E 21:17:40 10° NNE
YAOGAN 11 4.0 21:14:06 64° SE 21:14:40 74° ENE 21:19:09 10° N
Cosmos 2061 Rocket 4.0 21:12:27 31° SSE 21:15:32 61° E 21:21:41 10° NNE
SJ-11-01 4.1 21:18:52 65° SSE 21:19:32 82° ENE 21:24:14 10° N
H-2A R/B 3.6 21:23:38 23° NNE 21:23:38 23° NNE 21:25:35 10° N
Cosmos 1939 Rocket 3.4 21:26:45 51° NNE 21:26:45 51° NNE 21:29:57 10° N
NOSS 3-4 (A) 4.3 21:21:48 10° NW 21:28:50 58° WSW 21:32:51 28° S
NOSS 3-4 (C) 4.3 21:21:55 10° NW 21:28:58 59° WSW 21:32:55 29° S
Milstar 3 Cent rocket 4.1 21:06:19 10° W 21:28:59 82° S 21:34:14 40° ESE
Cosmos 1461 3.4 21:25:09 10° NW 21:28:49 50° WSW 21:28:49 50° WSW
Hubble Space Telescope 2.6 21:26:39 10° WSW 21:29:06 23° SW 21:29:06 23° SW
Cosmos 1626 Rocket 4.4 21:27:36 10° NNW 21:31:49 46° W 21:32:54 37° SW
OAO 2 Rocket 3.9 21:27:17 10° WNW 21:32:11 50° N 21:33:01 45° NNE
Cosmos 2298 Rocket 3.9 21:31:15 10° NNW 21:36:31 82° NE 21:36:31 82° NE
Envisat 2.9 21:37:25 81° NNE 21:37:25 81° NNE 21:42:18 10° N
deb Chang Zheng 4 4.3 21:36:12 10° N 21:39:28 48° N 21:39:28 48° N
Nimbus 7 Rocket 4.4 21:35:11 10° NNE 21:41:17 89° WNW 21:43:22 44° SSW
Cosmos 2227 Rocket 3.3 21:38:58 10° NW 21:44:10 39° WSW 21:46:14 29° SSW
Cosmos 1459 Rocket 4.1 21:43:34 32° SSW 21:46:24 69° W 21:52:28 10° N
Cosmos 1937 Rocket 4.0 21:42:29 10° N 21:46:32 50° NNE 21:46:32 50° NNE
Cosmos 2098 Rocket 4.2 21:58:17 68° NE 21:58:17 68° NE 22:03:52 10° N
Cosmos 2297 Rocket 3.1 21:54:23 10° NW 21:59:40 41° WSW 22:00:22 39° WSW
ERS-1 Rocket 4.3 22:07:57 33° WSW 22:08:08 33° W 22:12:38 10° NW
DELTA 2 R/B (1) 4.5 22:07:48 10° WNW 22:11:47 45° NW 22:11:47 45° NW
Centaur AC-125 4.2 22:01:41 10° W 22:13:08 48° WSW 22:13:08 48° WSW
Lacrosse 5 3.8 22:25:08 10° NNW 22:27:19 26° NNW 22:27:19 26° NNW
